Weather History for Monument Pass, CO

Change the Weather History Date:

Tuesday, January 10, 2012

  Actual Average (KAPA) Record (KAPA)
Temperature  
Mean Temperature 38 °F -  
Max Temperature 51 °F 42 °F 63 °F (2004)
Min Temperature 24 °F 19 °F -4 °F (2011)
Degree Days  
Heating Degree Days 28    
Moisture  
Dew Point 23 °F    
Average Humidity 59    
Maximum Humidity 80    
Minimum Humidity 30    
Precipitation  
Precipitation 0.00 in - - ()
Sea Level Pressure  
Sea Level Pressure 30.00 in    
Wind  
Wind Speed 7 mph (SSW)    
Max Wind Speed 12 mph    
Max Gust Speed -    
Visibility 10 miles    
Events      
Averages and records for this station are not official NWS values.
T = Trace of Precipitation, MM = Missing Value Source: NWS Daily Summary

Daily Weather History Graph

Daily Weather History Graph

Search for Another Location

Airport:

Trip Planner

Search our weather history database for the weather conditions in past years. The results will help you decide how hot, cold, wet, or windy it might be!

Date:

Astronomy

Jan. 10, 2012 Rise Set
Actual Time 7:17 AM MST 4:54 PM MST
Civil Twilight 6:48 AM MST 5:23 PM MST
Nautical Twilight 6:15 AM MST 5:57 PM MST
Astronomical Twilight 5:42 AM MST 6:29 PM MST
Moon 6:47 PM MST (1/10) 7:58 AM MST (1/10)
Length of Visible Light 10h 35m
Length of Day
9h 36m
Full, 98% of the Moon is Illuminated
Jan 10
Full
Jan 16
Last Quarter
Jan 23
New
Jan 30
First Quarter
Feb 7
Full

Hourly Weather History & Observations

Time (MST) Temp. Windchill Dew Point Humidity Pressure Visibility Wind Dir Wind Speed Gust Speed Precip Events Conditions
12:19 AM 24.8 °F 15.3 °F 19.4 °F 80% 30.14 in 10.0 mi West 9.2 mph - N/A   Clear
12:59 AM 28.4 °F 19.7 °F 19.4 °F 69% 30.13 in 10.0 mi SW 9.2 mph - N/A   Clear
1:19 AM 30.2 °F 21.9 °F 21.2 °F 69% 30.13 in 10.0 mi SW 9.2 mph - N/A   Clear
1:39 AM 32.0 °F 24.2 °F 21.2 °F 64% 30.12 in 10.0 mi SW 9.2 mph - N/A   Clear
1:59 AM 26.6 °F 17.5 °F 19.4 °F 74% 30.12 in 10.0 mi SW 9.2 mph - N/A   Clear
2:39 AM 26.6 °F 18.2 °F 19.4 °F 74% 30.12 in 10.0 mi SW 8.1 mph - N/A   Clear
2:59 AM 28.4 °F 22.2 °F 19.4 °F 69% 30.11 in 10.0 mi WSW 5.8 mph - N/A   Clear
3:19 AM 30.2 °F 24.3 °F 19.4 °F 64% 30.10 in 10.0 mi SW 5.8 mph - N/A   Clear
3:39 AM 28.4 °F 22.2 °F 19.4 °F 69% 30.10 in 10.0 mi WSW 5.8 mph - N/A   Clear
3:58 AM 28.4 °F 21.2 °F 19.4 °F 69% 30.09 in 10.0 mi SW 6.9 mph - N/A   Clear
4:19 AM 26.6 °F 20.0 °F 19.4 °F 74% 30.09 in 10.0 mi SW 5.8 mph - N/A   Clear
4:39 AM 28.4 °F 21.2 °F 19.4 °F 69% 30.08 in 10.0 mi WSW 6.9 mph - N/A   Clear
4:58 AM 26.6 °F 20.0 °F 19.4 °F 74% 30.08 in 10.0 mi WSW 5.8 mph - N/A   Clear
5:18 AM 28.4 °F 23.3 °F 19.4 °F 69% 30.08 in 10.0 mi WSW 4.6 mph - N/A   Clear
5:39 AM 26.6 °F 20.0 °F 19.4 °F 74% 30.08 in 10.0 mi SW 5.8 mph - N/A   Clear
6:19 AM 26.6 °F 19.1 °F 17.6 °F 69% 30.07 in 10.0 mi SW 6.9 mph - N/A   Clear
6:39 AM 26.6 °F 20.0 °F 17.6 °F 69% 30.07 in 10.0 mi SW 5.8 mph - N/A   Clear
6:59 AM 26.6 °F 19.1 °F 17.6 °F 69% 30.07 in 10.0 mi SSW 6.9 mph - N/A   Clear
7:19 AM 26.6 °F 17.5 °F 17.6 °F 69% 30.07 in 10.0 mi SSW 9.2 mph - N/A   Clear
7:39 AM 28.4 °F 21.2 °F 19.4 °F 69% 30.07 in 10.0 mi SSW 6.9 mph - N/A   Clear
7:59 AM 30.2 °F 22.6 °F 19.4 °F 64% 30.06 in 10.0 mi SSW 8.1 mph - N/A   Clear
8:18 AM 32.0 °F 24.8 °F 21.2 °F 64% 30.07 in 10.0 mi SSW 8.1 mph - N/A   Clear
8:39 AM 33.8 °F 28.6 °F 23.0 °F 65% 30.07 in 10.0 mi SSW 5.8 mph - N/A   Clear
8:59 AM 35.6 °F 31.7 °F 23.0 °F 60% 30.07 in 10.0 mi SSW 4.6 mph - N/A   Clear
9:19 AM 39.2 °F 35.0 °F 24.8 °F 56% 30.06 in 10.0 mi SSW 5.8 mph - N/A   Clear
9:38 AM 39.2 °F 37.0 °F 28.4 °F 65% 30.07 in 10.0 mi South 3.5 mph - N/A   Clear
9:59 AM 42.8 °F 40.1 °F 28.4 °F 57% 30.06 in 10.0 mi SSW 4.6 mph - N/A   Clear
10:19 AM 44.6 °F 40.7 °F 26.6 °F 49% 30.05 in 10.0 mi SSW 6.9 mph - N/A   Clear
10:38 AM 46.4 °F 43.5 °F 28.4 °F 50% 30.05 in 10.0 mi SSW 5.8 mph - N/A   Clear
10:59 AM 46.4 °F 44.3 °F 28.4 °F 50% 30.03 in 10.0 mi SSW 4.6 mph - N/A   Clear
11:19 AM 48.2 °F - 28.4 °F 46% 30.01 in 10.0 mi South 4.6 mph - N/A   Clear
11:39 AM 50.0 °F - 26.6 °F 40% 29.99 in 10.0 mi South 5.8 mph - N/A   Clear
11:59 AM 50.0 °F - 24.8 °F 37% 29.97 in 10.0 mi SSW 4.6 mph - N/A   Clear
12:19 PM 50.0 °F - 21.2 °F 32% 29.95 in 10.0 mi SSW 3.5 mph - N/A   Clear
12:39 PM 51.8 °F - 24.8 °F 35% 29.94 in 10.0 mi SSW 3.5 mph - N/A   Clear
12:59 PM 51.8 °F - 23.0 °F 33% 29.93 in 10.0 mi Calm Calm - N/A   Clear
1:39 PM 51.8 °F - 21.2 °F 30% 29.91 in 10.0 mi SSW 3.5 mph - N/A   Clear
1:58 PM 51.8 °F - 24.8 °F 35% 29.91 in 10.0 mi SSW 3.5 mph - N/A   Clear
2:19 PM 51.8 °F - 26.6 °F 38% 29.89 in 10.0 mi South 4.6 mph - N/A   Clear
2:39 PM 50.0 °F - 26.6 °F 40% 29.89 in 10.0 mi SSW 5.8 mph - N/A   Clear
2:59 PM 50.0 °F - 28.4 °F 43% 29.89 in 10.0 mi SSW 6.9 mph - N/A   Clear
3:19 PM 46.4 °F 42.9 °F 28.4 °F 50% 29.89 in 10.0 mi SSW 6.9 mph - N/A   Clear
3:39 PM 46.4 °F 43.5 °F 28.4 °F 50% 29.88 in 10.0 mi SSW 5.8 mph - N/A   Clear
3:58 PM 44.6 °F 41.4 °F 28.4 °F 53% 29.87 in 10.0 mi SSW 5.8 mph - N/A   Clear
4:19 PM 44.6 °F 39.7 °F 26.6 °F 49% 29.87 in 10.0 mi South 9.2 mph - N/A   Clear
4:39 PM 37.4 °F 32.8 °F 28.4 °F 70% 29.87 in 10.0 mi SSW 5.8 mph - N/A   Clear
5:19 PM 35.6 °F 29.2 °F 26.6 °F 70% 29.87 in 10.0 mi SSW 8.1 mph - N/A   Clear
5:39 PM 35.6 °F 29.9 °F 26.6 °F 70% 29.87 in 10.0 mi SSW 6.9 mph - N/A   Clear
5:59 PM 35.6 °F 28.6 °F 26.6 °F 70% 29.86 in 10.0 mi SSW 9.2 mph - N/A   Clear
6:19 PM 33.8 °F 27.7 °F 24.8 °F 70% 29.86 in 10.0 mi SSW 6.9 mph - N/A   Clear
6:39 PM 35.6 °F 28.6 °F 23.0 °F 60% 29.85 in 10.0 mi SSW 9.2 mph - N/A   Clear
6:59 PM 35.6 °F 27.5 °F 23.0 °F 60% 29.85 in 10.0 mi SW 11.5 mph - N/A   Clear
7:19 PM 33.8 °F 25.8 °F 23.0 °F 65% 29.84 in 10.0 mi SW 10.4 mph - N/A   Clear
7:39 PM 35.6 °F 27.5 °F 21.2 °F 56% 29.84 in 10.0 mi SW 11.5 mph - N/A   Clear
7:58 PM 35.6 °F 28.6 °F 19.4 °F 52% 29.83 in 10.0 mi WSW 9.2 mph - N/A   Clear
8:19 PM 33.8 °F 27.7 °F 19.4 °F 56% 29.83 in 10.0 mi West 6.9 mph - N/A   Clear
8:59 PM 33.8 °F 26.4 °F 19.4 °F 56% 29.83 in 10.0 mi West 9.2 mph - N/A   Clear
9:19 PM 33.8 °F 26.4 °F 17.6 °F 52% 29.83 in 10.0 mi West 9.2 mph - N/A   Clear
9:38 PM 32.0 °F 24.8 °F 17.6 °F 55% 29.83 in 10.0 mi WSW 8.1 mph - N/A   Clear
9:59 PM 32.0 °F 26.4 °F 14.0 °F 48% 29.82 in 10.0 mi WSW 5.8 mph - N/A   Clear
10:19 PM 35.6 °F 31.7 °F 12.2 °F 38% 29.83 in 10.0 mi WSW 4.6 mph - N/A   Clear
10:39 PM 35.6 °F 31.7 °F 10.4 °F 35% 29.83 in 10.0 mi West 4.6 mph - N/A   Clear
10:59 PM 37.4 °F 33.8 °F 8.6 °F 30% 29.82 in 10.0 mi West 4.6 mph - N/A   Clear
11:19 PM 37.4 °F 34.9 °F 10.4 °F 33% 29.82 in 10.0 mi SW 3.5 mph - N/A   Clear
11:38 PM 30.2 °F - 14.0 °F 51% 29.82 in 10.0 mi Calm Calm - N/A   Clear
11:59 PM 33.8 °F 29.6 °F 8.6 °F 35% 29.81 in 10.0 mi NW 4.6 mph - N/A   Clear